Regional Weather Roundup
Issued by NWS Cleveland, OH

Home | Current Version | Previous Version | Text Only | Print | Product List | Glossary Off
Versions: 1 2 3 4 5 6 7 8 9 10 11 12 13 14 15 16 17 18 19 20 21 22 23 24 25 26 27 28 29 30 31 32 33 34 35 36 37 38 39 40 41 42 43 44 45 46 47 48 49 50

756
ASUS41 KCLE 261210
RWRCLE
OHIO REGIONAL WEATHER ROUNDUP
NATIONAL WEATHER SERVICE CLEVELAND, OH
800 AM EDT FRI AUG 26 2016

NOTE: "FAIR" INDICATES FEW OR NO CLOUDS BELOW 12,000 FEET WITH NO
SIGNIFICANT WEATHER AND/OR OBSTRUCTIONS TO VISIBILITY.

OHZ001>008-015>018-024>027-034-035-043-044-261300-
   NORTHWEST OHIO

CITY           SKY/WX    TMP DP  RH WIND       PRES   REMARKS
DEFIANCE       MOSUNNY   66  63  90 CALM      30.14S
FINDLAY        MOSUNNY   70  64  81 CALM      30.13R
TOLEDO EXPRESS SUNNY     65  64  97 CALM      30.13R
TOLEDO EXEC    SUNNY     67  64  90 CALM      30.13S
LIMA           MOSUNNY   68  68 100 CALM      30.14S
$$

OHZ009>014-019>023-028>033-038-089-261300-
   NORTHEAST OHIO

CITY           SKY/WX    TMP DP  RH WIND       PRES   REMARKS
CLE-HOPKINS    MOSUNNY   73  65  75 W5        30.14R
CLE-LAKEFRONT  MOSUNNY   74  66  76 NW7       30.10R
CUY CO. ARPT   MOSUNNY   73  68  83 NW6       30.12R
LORAIN-ELYRIA  SUNNY     68  65  90 W3        30.14R
ASHTABULA      SUNNY     69  69 100 CALM      30.12S
AKRON-CANTON   MOSUNNY   72  68  87 W5        30.13R
WOOSTER        SUNNY     69  67  93 NW3       30.15R FOG
MANSFIELD      SUNNY     71  68  90 NW6       30.15R
YOUNGSTOWN     PTSUNNY   70  68  93 W3        30.12S FOG
$$

OHZ042-051>053-060>062-070>072-077>081-261300-
  SOUTHWEST OHIO

CITY           SKY/WX    TMP DP  RH WIND       PRES   REMARKS
CINC-COVINGTON MOSUNNY   72  71  97 CALM      30.14R
CINC-LUNKEN    NOT AVBL
HAMILTON       SUNNY     72  70  93 CALM      30.13R FOG
DAYTON         MOSUNNY   73  72  96 CALM      30.15R
WRIGHT-PAT AFB MOSUNNY   72  72 100 CALM      30.13R
DAYTON GENERAL SUNNY     73  71  93 CALM      30.14R FOG
WILMINGTON     MOSUNNY   71  71 100 CALM      30.15R FOG
$$

OHZ036-037-039>041-045>050-054>059-063>069-073>076-082>088-261300-
  CENTRAL AND SOUTHEAST OHIO

CITY           SKY/WX    TMP DP  RH WIND       PRES   REMARKS
COLUMBUS       MOSUNNY   73  71  93 CALM      30.13R
OSU AIRPORT    SUNNY     73  72  96 CALM      30.14R
BOLTON FIELD   SUNNY     72  72 100 CALM      30.15R
RICKENBACK AFB SUNNY     71  71 100 S3        30.13S FOG
NEWARK         SUNNY     71  69  93 CALM      30.14R
MARION         MOSUNNY   71  68  90 NW3       30.15R FOG
LANCASTER      SUNNY     73  71  93 CALM      30.14R
ZANESVILLE     SUNNY     72  71  97 W3        30.14S FOG
NEW PHILLY     CLOUDY    73  69  87 CALM      30.14R FOG
$$




USA.gov is the U.S. government's official web portal to all federal, state and local government web resources and services.